[[{"header":{"parameterUnit":"m.s-1","parameterCategory":1,"la1":30.2991,"la2":30.254,"lo1":-89.0895,"lo2":-89.0444,"dy":0.0017,"dx":0.0017,"nx":28,"ny":28,"refTime":"2023-09-24T09:00:00:Z","depth":0,"parameterNumber":2,"parameterNumberName":"U-component_of_WINDS"},"data":[0,0,0,0,0,0,0,0,0,0,0,0,0,0,0,0,0,0,0,0,0,0,0,0,0,0,0,0,0,0,0,0,0,0,0,0,0,0,0,0,0,0,0,0,0,0,0,0,0,0,0,0,0,0,0,0,0,0,-1.6016,-1.6017,0,-1.6069,-1.6069,-1.607,-1.6062,-1.6061,-1.606,-1.6059,-1.6112,-1.6115,-1.6117,0,0,0,0,0,0,0,0,0,0,0,0,0,-1.591,-1.5912,-1.6016,-1.6017,-1.6018,-1.6068,-1.6069,-1.607,-1.6062,-1.6061,-1.606,-1.6059,-1.6112,-1.6114,-1.6117,0,0,0,0,0,0,0,0,0,0,0,0,0,-1.5959,-1.5913,-1.6016,-1.602,-1.6021,-1.6068,-1.6069,-1.607,-1.6062,-1.6061,-1.606,-1.6058,-1.6111,-1.6114,-1.6117,-1.6164,0,0,-1.6128,-1.6129,0,0,0,0,0,0,0,0,-1.5956,-1.5963,-1.6019,-1.602,-1.6021,-1.6057,-1.6051,-1.6102,-1.6063,-1.6046,-1.6059,-1.6058,-1.6095,-1.61,-1.6112,-1.6167,-1.6169,-1.6128,-1.613,-1.6131,-1.6132,0,0,0,0,0,0,0,-1.5953,-1.596,-1.6037,-1.6019,-1.6021,-1.6019,-1.6024,-1.6061,-1.6078,-1.6048,-1.6047,-1.6054,-1.6095,-1.6109,-1.6114,-1.617,-1.6128,-1.6131,-1.6133,-1.6134,-1.6268,-1.6269,0,0,0,0,0,0,-1.5948,-1.5958,-1.6035,-1.6038,-1.5984,-1.6022,-1.6028,-1.6047,-1.6077,-1.608,-1.6055,-1.6053,-1.6104,-1.611,-1.6115,-1.6174,-1.6131,-1.6134,-1.6136,-1.6266,-1.6268,-1.627,0,0,0,0,0,0,-1.5946,-1.5955,-1.6033,-1.5998,-1.6008,-1.6025,-1.6046,-1.6049,-1.6062,-1.6082,-1.6085,-1.6066,-1.6103,-1.6111,-1.6153,-1.6176,-1.6136,-1.6139,-1.6265,-1.6267,-1.6269,-1.6291,0,0,0,0,0,0,-1.5943,-1.5955,-1.5972,-1.5998,-1.601,-1.607,-1.6048,-1.6051,-1.6068,-1.6067,-1.6093,-1.6097,-1.6103,-1.6148,-1.6156,-1.6179,-1.6142,-1.6263,-1.6266,-1.6268,-1.6288,-1.6293,-1.6298,0,0,0,0,0,-1.5939,-1.5976,-1.5973,-1.5983,-1.6032,-1.6071,-1.6077,-1.6084,-1.607,-1.6088,-1.6102,-1.6096,-1.6172,-1.6152,-1.6161,-1.6186,-1.6261,-1.6265,-1.6268,-1.6286,-1.6292,-1.6298,0,0,0,0,0,0,-1.5951,-1.5979,-1.5977,-1.6023,-1.6045,-1.6069,-1.6093,-1.609,-1.6116,-1.6114,-1.612,-1.6127,-1.617,-1.6182,-1.616,-1.6234,-1.6215,-1.622,-1.6225,-1.6231,-1.6236,-1.6232,-1.6144,0,0,0,0,0,-1.5959,-1.5988,-1.6011,-1.6049,-1.6061,-1.6075,-1.6092,-1.6095,-1.6118,-1.6127,-1.6143,-1.6165,-1.6195,-1.6213,-1.6241,-1.629,-1.6296,-1.6311,-1.6316,-1.632,-1.6325,-1.6353,-1.6361,-1.6281,-1.6281,-1.6281,0,0,-1.5976,-1.5995,-1.6013,-1.6052,-1.607,-1.61,-1.6083,-1.6115,-1.6138,-1.6132,-1.6173,-1.6186,-1.6211,-1.6257,-1.6278,-1.6269,-1.6349,-1.6325,-1.6328,-1.6331,-1.6358,-1.6365,-1.6372,-1.6284,-1.6283,-1.6283,0,0,-1.6023,-1.6039,-1.6074,-1.6092,-1.6119,-1.6128,-1.6136,-1.6162,-1.6171,-1.6212,-1.6209,-1.6236,-1.6286,-1.6305,-1.6321,-1.6376,-1.6372,-1.6385,-1.6411,-1.6438,-1.6445,-1.645,-1.6471,-1.6479,-1.6389,-1.6389,-1.6389,0,-1.604,-1.6085,-1.6092,-1.6125,-1.6143,-1.614,-1.6176,-1.6193,-1.6227,-1.624,-1.6229,-1.6292,-1.6309,-1.636,-1.6374,-1.6387,-1.6397,-1.6382,-1.6443,-1.6449,-1.6454,-1.6474,-1.6482,-1.6391,-1.6391,-1.6391,-1.639,0,-1.6106,-1.6138,-1.6163,-1.6197,-1.6217,-1.6252,-1.6264,-1.6284,-1.6286,-1.6297,-1.634,-1.6361,-1.6393,-1.6405,-1.6407,-1.6457,-1.6451,-1.6442,-1.6422,-1.6463,-1.6482,-1.649,-1.6393,-1.6392,-1.6392,-1.6392,0,0,-1.6161,-1.6199,-1.6208,-1.6224,-1.6254,-1.6279,-1.6314,-1.6346,-1.6364,-1.6388,-1.6418,-1.6461,-1.6453,-1.6471,-1.6475,-1.6499,-1.6543,-1.6487,-1.6488,-1.6498,-1.6601,-1.6609,-1.6617,-1.6541,-1.6542,-1.6543,-1.66,0,-1.6211,-1.6272,-1.628,-1.6334,-1.6364,-1.6363,-1.6393,-1.6415,-1.6426,-1.6454,-1.6466,-1.6497,-1.6484,-1.6495,-1.6519,-1.6533,-1.6564,-1.6529,-1.6569,-1.6571,-1.6564,-1.6627,-1.6635,-1.6687,-1.6607,-1.6608,-1.6609,0,-1.6277,-1.6304,-1.6362,-1.6389,-1.6402,-1.6429,-1.646,-1.6486,-1.6512,-1.6518,-1.654,-1.6541,-1.6578,-1.6557,-1.6608,-1.6583,-1.66,-1.661,-1.6612,-1.6617,-1.6593,-1.6634,-1.6703,-1.6712,-1.6621,-1.662,-1.6619,0,-1.6313,-1.6363,-1.6405,-1.6419,-1.6451,-1.6471,-1.6485,-1.6509,-1.6529,-1.6556,-1.6569,-1.66,-1.6617,-1.6641,-1.6651,-1.6634,-1.6702,-1.6681,-1.6709,-1.6709,-1.6724,-1.6723,-1.6798,-1.6734,-1.6734,-1.6733,-1.6733,0,-1.6368,-1.6404,-1.6422,-1.6447,-1.6488,-1.6496,-1.6536,-1.655,-1.6572,-1.66,-1.66,-1.6627,-1.6639,-1.6668,-1.6676,-1.6718,-1.6725,-1.6732,-1.6734,-1.6733,-1.6732,-1.6744,-1.6741,-1.6735,-1.6735,-1.6735,-1.6734,0,-1.6415,-1.6428,-1.6474,-1.6501,-1.6509,-1.6538,-1.6561,-1.6587,-1.6598,-1.6635,-1.6644,-1.6662,-1.6696,-1.6709,-1.675,-1.6755,-1.6804,-1.6803,-1.6796,-1.6797,-1.6824,-1.6822,-1.691,-1.6923,-1.685,-1.685,-1.6851,0,-1.645,-1.6478,-1.6509,-1.6528,-1.6543,-1.6574,-1.6595,-1.6605,-1.6626,-1.6658,-1.6679,-1.6714,-1.6742,-1.6797,-1.6814,-1.6846,-1.6846,-1.6874,-1.685,-1.6849,-1.6847,-1.6846,-1.6849,-1.6879,-1.688,-1.688,-1.6881,0,-1.6511,-1.6517,-1.6546,-1.6578,-1.6602,-1.6628,-1.6652,-1.6668,-1.6682,-1.6706,-1.6741,-1.6763,-1.6806,-1.6841,-1.6874,-1.6889,-1.6888,-1.6888,-1.6897,-1.6896,-1.6891,-1.6895,-1.6809,-1.6886,-1.6886,-1.6885,-1.6885,-1.6885,-1.6554,-1.6579,-1.6605,-1.6638,-1.6658,-1.6681,-1.6707,-1.6722,-1.6752,-1.6788,-1.6792,-1.683,-1.6856,-1.6901,-1.6918,-1.6948,-1.694,-1.6952,-1.6955,-1.6958,-1.6961,-1.6886,-1.6954,-1.6954,-1.6954,-1.6954,-1.6954,0,-1.6616,-1.6633,-1.6663,-1.6698,-1.6725,-1.6721,-1.6749,-1.6771,-1.6805,-1.6829,-1.6857,-1.6899,-1.6932,-1.6952,-1.6986,-1.7007,-1.7007,-1.7016,-1.7015,-1.7019,-1.6965,-1.6955,-1.7015,-1.7015,-1.7015,-1.7015,-1.7015,-1.7015,-1.6651,-1.6694,-1.6703,-1.6756,-1.6773,-1.6811,-1.6827,-1.6849,-1.6869,-1.6915,-1.6943,-1.6956,-1.6979,-1.7015,-1.7046,-1.7051,-1.7064,-1.7074,-1.7078,-1.7028,-1.7022,-1.7016,-1.7007,-1.7076,-1.7076,-1.7129,-1.7129,-1.713]},{"header":{"parameterUnit":"m.s-1","parameterCategory":1,"la1":30.2991,"la2":30.254,"lo1":-89.0895,"lo2":-89.0444,"dy":0.0017,"dx":0.0017,"nx":28,"ny":28,"refTime":"2023-09-24T09:00:00:Z","depth":0,"parameterNumber":3,"parameterNumberName":"V-component_of_WINDS"},"data":[0,0,0,0,0,0,0,0,0,0,0,0,0,0,0,0,0,0,0,0,0,0,0,0,0,0,0,0,0,0,0,0,0,0,0,0,0,0,0,0,0,0,0,0,0,0,0,0,0,0,0,0,0,0,0,0,0,0,3.5477,3.5476,0,3.5409,3.5408,3.5408,3.5277,3.5274,3.5272,3.5269,3.5203,3.5204,3.5204,0,0,0,0,0,0,0,0,0,0,0,0,0,3.5496,3.5497,3.5477,3.5476,3.5475,3.5409,3.5408,3.5407,3.5277,3.5274,3.5271,3.5268,3.5203,3.5204,3.5204,0,0,0,0,0,0,0,0,0,0,0,0,0,3.5464,3.5497,3.5477,3.5402,3.5395,3.5409,3.5408,3.5407,3.5278,3.5274,3.527,3.5267,3.5203,3.5204,3.5205,3.5287,0,0,3.5207,3.5208,0,0,0,0,0,0,0,0,3.5466,3.5464,3.5414,3.5407,3.5399,3.5347,3.5391,3.5367,3.5279,3.5322,3.5269,3.5265,3.5254,3.5251,3.5247,3.5284,3.5281,3.5207,3.5208,3.5208,3.5209,0,0,0,0,0,0,0,3.5469,3.5466,3.545,3.5413,3.5404,3.5373,3.5364,3.5386,3.5311,3.5318,3.5309,3.5302,3.525,3.5246,3.5244,3.5281,3.5207,3.5208,3.5209,3.5209,3.5382,3.5385,0,0,0,0,0,0,3.5481,3.5469,3.5452,3.5448,3.5424,3.5376,3.5366,3.5368,3.531,3.5298,3.5306,3.5296,3.5246,3.5243,3.5241,3.5333,3.5208,3.5209,3.521,3.5378,3.5382,3.5387,0,0,0,0,0,0,3.5482,3.5481,3.5455,3.5456,3.545,3.5379,3.5383,3.5369,3.5365,3.5301,3.5287,3.5315,3.5243,3.524,3.5276,3.5329,3.521,3.5211,3.5373,3.5379,3.5385,3.5518,0,0,0,0,0,0,3.5483,3.5482,3.5512,3.5457,3.545,3.549,3.5386,3.537,3.5366,3.5354,3.5306,3.5295,3.524,3.5276,3.5277,3.5328,3.5211,3.5368,3.5376,3.5383,3.5508,3.5528,3.5544,0,0,0,0,0,3.5485,3.5553,3.5514,3.5513,3.5486,3.5494,3.549,3.5424,3.5371,3.5401,3.536,3.5296,3.5324,3.5281,3.5281,3.5333,3.5364,3.5373,3.5382,3.55,3.5524,3.5544,0,0,0,0,0,0,3.5617,3.5545,3.5501,3.5553,3.5531,3.5472,3.5507,3.5452,3.5444,3.5433,3.5353,3.5343,3.539,3.5366,3.5319,3.541,3.5334,3.5343,3.5423,3.5445,3.5463,3.5467,3.5212,0,0,0,0,0,3.5652,3.5664,3.56,3.5653,3.5644,3.5578,3.5579,3.5531,3.5504,3.5494,3.5455,3.5433,3.5436,3.544,3.5439,3.5505,3.5492,3.5541,3.5559,3.5574,3.5583,3.5614,3.5635,3.5416,3.5416,3.5416,0,0,3.5725,3.5687,3.5699,3.5679,3.5655,3.5669,3.5571,3.559,3.5599,3.5497,3.5527,3.55,3.5469,3.552,3.5541,3.5501,3.5641,3.5586,3.5598,3.5598,3.5626,3.5647,3.5665,3.5423,3.5421,3.542,0,0,3.5865,3.5838,3.5878,3.5856,3.5822,3.5778,3.5788,3.5737,3.5714,3.5744,3.5667,3.5679,3.5686,3.5667,3.5658,3.5792,3.5733,3.5795,3.5887,3.5919,3.5936,3.5951,3.5997,3.6014,3.5804,3.5805,3.5805,0,3.596,3.5976,3.5906,3.5929,3.5922,3.583,3.587,3.5854,3.5822,3.5819,3.5775,3.5782,3.5756,3.58,3.5833,3.583,3.5838,3.5798,3.5939,3.5954,3.5966,3.6009,3.6027,3.5812,3.5811,3.581,3.581,0,3.6094,3.6108,3.6144,3.6114,3.6112,3.6144,3.6079,3.6085,3.6038,3.5999,3.6031,3.5996,3.5986,3.5994,3.5948,3.6032,3.6008,3.5954,3.5875,3.5996,3.6034,3.6051,3.5823,3.582,3.5818,3.5816,0,0,3.6312,3.6243,3.6258,3.6243,3.6199,3.6208,3.6237,3.6226,3.6232,3.6214,3.6235,3.6245,3.6193,3.6184,3.6136,3.6164,3.627,3.6105,3.6103,3.6135,3.6359,3.6398,3.6418,3.6232,3.6235,3.6237,3.636,0,3.644,3.6483,3.6421,3.6478,3.6489,3.6402,3.6427,3.6403,3.6368,3.6373,3.6335,3.6341,3.6274,3.6268,3.6292,3.6252,3.6314,3.6243,3.625,3.6251,3.6257,3.6439,3.6481,3.6599,3.6375,3.6378,3.638,0,3.6594,3.6582,3.664,3.6591,3.6594,3.6617,3.6602,3.6608,3.658,3.6552,3.6542,3.6485,3.651,3.6437,3.6469,3.6423,3.6423,3.6404,3.6407,3.6403,3.6321,3.6438,3.6635,3.6652,3.6403,3.6401,3.64,0,3.6744,3.6743,3.6777,3.6767,3.6713,3.6731,3.6709,3.6677,3.6675,3.6663,3.666,3.6652,3.6647,3.6643,3.6585,3.6537,3.6625,3.6546,3.6602,3.6603,3.6622,3.6621,3.6819,3.6627,3.6626,3.6626,3.6626,0,3.6892,3.693,3.6844,3.6864,3.6905,3.6834,3.6877,3.6847,3.6819,3.6833,3.6759,3.6774,3.6698,3.6705,3.666,3.6693,3.6693,3.6671,3.6658,3.6676,3.6678,3.6672,3.6662,3.6631,3.663,3.6629,3.6628,0,3.7065,3.7009,3.704,3.6986,3.6974,3.7006,3.696,3.6977,3.6938,3.6956,3.6957,3.6895,3.6899,3.6842,3.6836,3.6805,3.6858,3.6832,3.6867,3.6858,3.6916,3.691,3.7115,3.7138,3.6934,3.6936,3.6937,0,3.7161,3.7188,3.7138,3.7141,3.7123,3.713,3.7126,3.7059,3.7059,3.7029,3.705,3.7048,3.7042,3.7053,3.7008,3.7003,3.6975,3.7047,3.6973,3.699,3.6973,3.6971,3.6973,3.7062,3.7065,3.7067,3.7068,0,3.7337,3.7308,3.7306,3.7295,3.7294,3.7282,3.7265,3.7273,3.7199,3.7203,3.7206,3.7202,3.7195,3.7193,3.7179,3.7157,3.7101,3.7092,3.7104,3.7122,3.714,3.7128,3.6907,3.7087,3.7085,3.7084,3.7083,3.7082,3.7473,3.7493,3.746,3.746,3.7441,3.7427,3.744,3.7403,3.7404,3.7392,3.7353,3.7362,3.7333,3.7308,3.7292,3.7299,3.7263,3.7281,3.7285,3.729,3.73,3.7141,3.7296,3.7296,3.7295,3.7295,3.7294,0,3.7643,3.7618,3.7619,3.7598,3.7599,3.7546,3.7525,3.7529,3.7538,3.7516,3.7512,3.7515,3.7513,3.7469,3.7462,3.7476,3.745,3.7476,3.7473,3.7469,3.7333,3.7322,3.7497,3.7497,3.7497,3.7497,3.7497,3.7497,3.7732,3.7762,3.773,3.775,3.7724,3.7732,3.7725,3.7712,3.7693,3.77,3.7698,3.7669,3.7638,3.7628,3.7625,3.7612,3.7612,3.7647,3.7625,3.7498,3.7479,3.746,3.7449,3.7648,3.7648,3.776,3.7761,3.7762]}]]